Location: Essen
(51.4609°N, 7.0127°E)
Time: 12:41:17
(UTC+01:00)

ISS - Pass Details

Date: 09 January 2018
Orbit: 402 x 407 km, 51.6° (Epoch: 18 January)

Event Time Altitude Azimuth Distance (km) Brightness Sun altitude
Exits shadow 07:21:27 16° 272° (W) 1,172 -2.1 -10.8°
Maximum altitude 07:23:49 43° 205° (SSW) 584 -3.1 -10.5°
Drops below altitude 10° 07:26:57 10° 132° (SE) 1,466 0.3 -10.0°
Sets 07:29:05 0° 126° (SE) 2,324 1.9 -9.7°
